Regional Weather Roundup
Issued by NWS Sioux Falls, SD

Home | Current Version | Previous Version | Graphics & Text | Print | Product List | Glossary On
Versions: 1 2 3 4 5 6 7 8 9 10 11 12 13 14 15 16 17 18 19 20 21 22 23 24 25 26 27 28 29 30 31 32 33 34 35 36 37 38 39 40 41 42 43 44 45 46 47 48 49 50
000
ASUS43 KFSD 240802
RWRFSD

WEATHER ROUNDUP FOR SE SOUTH DAKOTA/SW MINNESOTA/NW IOWA
NATIONAL WEATHER SERVICE SIOUX FALLS SD
300 AM CDT SUN MAY 24 2015

NOTE: "FAIR" INDICATES FEW OR NO CLOUDS BELOW 12,000 FEET WITH NO
SIGNIFICANT WEATHER AND OR OBSTRUCTIONS TO VISIBILITY.


SDZ038>040-050-052>070-240900-
SOUTHEAST SOUTH DAKOTA

CITY           SKY/WX    TMP DP  RH WIND       PRES   REMARKS
BROOKINGS      CLOUDY    57  54  88 SE6       30.06F
CHAMBERLAIN    CLOUDY    55  54  99 E5        30.02S FOG
HURON          CLOUDY    54  52  93 S3        30.02F
MADISON        LGT RAIN  55  55 100 SE7       30.05F
MITCHELL       CLOUDY    57  56  96 E3        30.02F FOG
SIOUX FALLS    LGT RAIN  58  57  97 E5        30.04F FOG
WINNER         CLOUDY    56  54  93 E5        30.01S FOG
YANKTON        CLOUDY    57  55  94 E7        30.01F
$$

MNZ071-072-080-081-089-090-097-098-240900-
SOUTHWEST MINNESOTA

CITY           SKY/WX    TMP DP  RH WIND       PRES   REMARKS
FAIRMONT       CLOUDY    61  48  63 E6        30.07F
JACKSON        LGT RAIN  61  55  82 E6        30.08F
LUVERNE        LGT RAIN  59  55  88 E3        30.06F
MARSHALL       CLOUDY    59  48  67 SE7       30.06F
MONTEVIDEO     CLOUDY    59  50  72 SE6       30.08F
REDWOOD FALLS  CLOUDY    62  50  64 SE8       30.08S
TRACY          LGT RAIN  61  54  75 SE5       30.08S
WINDOM         CLOUDY    61  54  77 CALM      30.08F
WORTHINGTON    CLOUDY    57  55  94 E3        30.07F
$$

IAZ001>003-012>014-020>022-031-032-NEZ013-014-SDZ071-240900-
NORTHWEST IOWA

CITY           SKY/WX    TMP DP  RH WIND       PRES   REMARKS
DENISON        CLOUDY    59  59 100 SE6       30.01F FOG
ESTHERVILLE    CLOUDY    61  52  72 E9        30.07F
SIOUX CITY     LGT RAIN  61  58  90 E9        30.00F
SPENCER        LGT RAIN  61  58  90 SE9       30.07F
$$

ABBREVIATIONS USED IN REMARKS
   TC - TEMPERATURE IN CELSIUS
  WCI - WIND CHILL INDEX
   HX - HEAT INDEX
  VSB - VISIBILITY




USA.gov is the U.S. government's official web portal to all federal, state and local government web resources and services.